This is the latest recevied weather packets stored in our database for station/object DJ2DS-13. If no packets are shown the sender has not sent any weather packets the latest 10 day(s).
| Time | Temp. | Humidity | Pressure | Rain* | Wind** | Luminosity | Snow |
|---|---|---|---|---|---|---|---|
| 1777539876 | 15° C | 39% | 1031.1 hPa | 0 mm | - | 485 W/m² | - |
| 1777539576 | 15° C | 41% | 1031.2 hPa | 0 mm | - | 508 W/m² | - |
| 1777539275 | 14.44° C | 39% | 1031.2 hPa | 0 mm | - | 520 W/m² | - |
| 1777538976 | 14.44° C | 40% | 1031.3 hPa | 0 mm | - | 543 W/m² | - |
| 1777538674 | 14.44° C | 39% | 1031.3 hPa | 0 mm | - | 566 W/m² | - |
| 1777538373 | 14.44° C | 41% | 1031.2 hPa | 0 mm | - | 570 W/m² | - |
| 1777538072 | 14.44° C | 42% | 1031.3 hPa | 0 mm | - | 564 W/m² | - |
| 1777537772 | 14.44° C | 40% | 1031.3 hPa | 0 mm | - | 552 W/m² | - |
| 1777537471 | 13.89° C | 44% | 1031.3 hPa | 0 mm | - | 538 W/m² | - |
| 1777537172 | 13.89° C | 46% | 1031.3 hPa | 0 mm | - | 524 W/m² | - |
| 1777536871 | 13.33° C | 44% | 1031.5 hPa | 0 mm | - | 517 W/m² | - |
| 1777536571 | 13.33° C | 45% | 1031.4 hPa | 0 mm | - | 404 W/m² | - |
| 1777536270 | 13.33° C | 43% | 1031.4 hPa | 0 mm | - | 499 W/m² | - |
| 1777535971 | 13.33° C | 46% | 1031.4 hPa | 0 mm | - | 491 W/m² | - |
| 1777535671 | 13.33° C | 43% | 1031.4 hPa | 0 mm | - | 478 W/m² | - |
| 1777535370 | 13.33° C | 46% | 1031.4 hPa | 0 mm | - | 468 W/m² | - |
| 1777535070 | 12.78° C | 48% | 1031.4 hPa | 0 mm | - | 457 W/m² | - |
| 1777534770 | 12.78° C | 51% | 1031.5 hPa | 0 mm | - | 445 W/m² | - |
| 1777534469 | 12.22° C | 51% | 1031.6 hPa | 0 mm | - | 429 W/m² | - |
| 1777534172 | 12.22° C | 54% | 1031.4 hPa | 0 mm | - | 415 W/m² | - |
| 1777533871 | 12.22° C | 54% | 1031.5 hPa | 0 mm | - | 399 W/m² | - |
| 1777533569 | 12.22° C | 56% | 1031.6 hPa | 0 mm | - | 392 W/m² | - |
| 1777533270 | 12.22° C | 58% | 1031.6 hPa | 0 mm | - | 375 W/m² | - |
| 1777532969 | 11.67° C | 59% | 1031.6 hPa | 0 mm | - | 371 W/m² | - |
| 1777532670 | 11.67° C | 60% | 1031.6 hPa | 0 mm | - | 357 W/m² | - |
* Rain latest hour (hover to see other rain measurements)
** Current wind speed in m/s (hover to see current wind gust speed)